Погода в Силиньхоте

Китай     43°57′06″N   116°05′18″E
темп.,
°C
ветер,
м/с
пор.,
м/с
влажн.,
%
обл.,
%
осадки,
мм/ч
давл.,
гПа
погр.,
м
24 апреля, сб
сб2423:00+11ссв712415 0.0 1026662
02:00+8ссв510370 0.0 1029445
05:00+6ссв510415 0.0 1030371
08:00+7св67385 0.0 1031549
11:00+13св773540 0.0 10281051
14:00+16св662962 0.0 10251428
17:00+16св552495 0.0 10241364
20:00+12ссв4832100 0.0 1025201
25 апреля, вс
вс2523:00+10св2333100 0.0 102645
02:00+8в2260100 0.0 102521
05:00+7юв227886 0.0 102424
08:00+11ююв2457100 0.0 1023337
11:00+17ююз5534100 0.0 10201490
14:00+20ююз6726100 0.0 10162314
17:00+19ююз7824100 0.0 10142301
20:00+16ю71334100 0.0 1013599
26 апреля, пн
пн2623:00+14ююз8153895 0.0 1013728
02:00+13ююз81348100 0.0 1011809
05:00+12юз81164100 0.1 10091342
08:00+10юз6977100 1.1 1009981
11:00+16зюз1214316 0.0 10061837
14:00+15зюз14181099 0.0 10062135
17:00+13зюз11181121 0.0 10062345
20:00+10зюз915130 0.0 10061312
27 апреля, вт
вт2723:00+9юз915130 0.0 10061127
02:00+5зюз101343100 0.0 10061427
05:00+3сз6990100 0.4 1009705
08:00+3ссз9115492 0.6 10141190
11:00+7сз9103282 0.0 10142165
14:00+9зсз101222100 0.0 10133290
17:00+8сз111418100 0.0 10133398
20:00+7зсз8122116 0.0 10161084
28 апреля, ср
ср2823:00+5зсз713270 0.0 1018638
02:00+4зсз611325 0.0 1018449
05:00+2з511414 0.0 1018402
08:00+4сз812360 0.0 10191365
11:00+8зсз913265 0.0 10162466
14:00+11сз101418100 0.0 10114116
17:00+11сз91317100 0.0 10093541
20:00+8с482396 0.0 1011422